Flag for Italy Weather past 2 weeks in Modena, Italy

Now
64 °F

Sunny.


Feels Like: 64 °F
Forecast: 45 / 64 °F
Wind: No wind

Location: Bologna / Borgo Panigale

Current Time: Oct 23, 2014 at 5:57:56 PM

Latest Report: Oct 23, 2014 at 5:20 PM


Visibility: 10 mi

Pressure: 29.80 "Hg

Humidity: 46%

Dew point: 43 °F

Location of ModenaLocation

Historic Weather in Modena — Graph

°F

Modena temperature yesterday

Maximum temperature yesterday: 66 °F (at 4:20 AM)
Minimum temperature yesterday: 55 °F (at 7:50 PM)
Average temperature yesterday: 60 °F

Past Weeks' High & Low Weather Summary

 TemperatureHumidityPressure
High81 °F (Oct 13, 12:50 PM)100% (Oct 9, 5:20 AM)30.30 "Hg (Oct 9, 5:20 AM)
Low50 °F (Oct 23, 8:20 AM)24% (Oct 22, 3:20 PM)29.53 "Hg (Oct 22, 1:50 AM)
Average66 °F82%29.98 "Hg
* Reported Oct 8 4:20 PM — Oct 23 4:50 PM, Modena, Weather by CustomWeather, © 2014

Note: Actual official high and low records may vary slightly from our data, if they occured in-between our weather recording intervals... More about our weather records

Advertising

Modena weather history for previous 24 hours

 ConditionsComfort  
Time TempWeatherWind HumidityBarometerVisibility
4:50 PM
Oct 23
66 °FPassing clouds.5 mph37%29.77 "HgN/A
4:20 PM66 °FPassing clouds.8 mph37%29.77 "HgN/A
3:50 PM66 °FPassing clouds.7 mph37%29.77 "HgN/A
3:20 PM66 °FPassing clouds.13 mph35%29.77 "HgN/A
2:50 PM66 °FPassing clouds.13 mph32%29.77 "HgN/A
2:20 PM66 °FPassing clouds.7 mph37%29.80 "HgN/A
1:50 PM64 °FPassing clouds.8 mph37%29.77 "HgN/A
1:20 PM64 °FPassing clouds.12 mph32%29.77 "HgN/A
12:50 PM64 °FPassing clouds.13 mph32%29.80 "HgN/A
12:20 PM63 °FPassing clouds.15 mph32%29.80 "HgN/A
11:50 AM63 °FPassing clouds.15 mph34%29.80 "HgN/A
11:20 AM63 °FPassing clouds.15 mph32%29.80 "HgN/A
10:50 AM63 °FPassing clouds.18 mph32%29.80 "HgN/A
10:20 AM61 °FPassing clouds.14 mph34%29.80 "HgN/A
9:50 AM59 °FPassing clouds.12 mph39%29.80 "HgN/A
9:20 AM54 °FSunny.6 mph54%29.80 "Hg10 mi
8:50 AM50 °FSunny.3 mph54%29.80 "Hg10 mi
8:20 AM50 °FClear.2 mph47%29.80 "Hg10 mi
7:50 AM52 °FClear.5 mph44%29.80 "Hg10 mi
7:20 AM54 °FClear.10 mph38%29.80 "Hg10 mi
6:50 AM54 °FClear.13 mph38%29.80 "Hg10 mi
6:20 AM54 °FClear.13 mph41%29.80 "Hg10 mi
5:50 AM54 °FClear.15 mph38%29.80 "Hg10 mi
5:20 AM55 °FClear.15 mph36%29.80 "Hg10 mi
4:50 AM54 °FClear.14 mph41%29.80 "Hg10 mi
4:20 AM55 °FClear.15 mph36%29.83 "Hg10 mi
3:50 AM55 °FPassing clouds.16 mph36%29.83 "HgN/A
3:20 AM55 °FClear.18 mph33%29.83 "Hg10 mi
2:50 AM55 °FClear.17 mph33%29.83 "Hg10 mi
2:20 AM55 °FClear.18 mph33%29.83 "Hg10 mi
1:50 AM55 °FClear.21 mph33%29.86 "Hg10 mi
1:20 AM55 °FClear.20 mph33%29.86 "Hg10 mi
12:50 AM55 °FClear.20 mph31%29.86 "Hg10 mi
12:20 AM55 °FClear.16 mph31%29.86 "Hg10 mi
11:50 PM
Oct 22
55 °FClear.17 mph31%29.89 "Hg10 mi
11:20 PM55 °FClear.17 mph31%29.89 "Hg10 mi
10:50 PM55 °FClear.20 mph31%29.89 "Hg10 mi
10:20 PM55 °FClear.21 mph31%29.89 "Hg10 mi
9:50 PM55 °FClear.21 mph31%29.89 "Hg10 mi
9:20 PM55 °FClear.21 mph31%29.86 "Hg10 mi
8:50 PM55 °FClear.21 mph31%29.86 "Hg10 mi
8:20 PM55 °FClear.20 mph31%29.86 "Hg10 mi
7:50 PM55 °FClear.20 mph31%29.86 "Hg10 mi
7:20 PM57 °FClear.17 mph31%29.83 "Hg10 mi
6:50 PM57 °FSunny.16 mph31%29.83 "Hg10 mi
6:20 PM59 °FSunny.16 mph27%29.83 "Hg10 mi
5:50 PM61 °FSunny.16 mph27%29.83 "Hg10 mi
5:20 PM63 °FSunny.18 mph25%29.83 "Hg10 mi
Weather by CustomWeather, © 2014

See weather overviewHow to use our weather pages